Tracking 31027 objects as of 19-Jul-2025
HD Live streaming from Space Station
objects crossing your sky now

STARLINK-30872

Track STARLINK-30872 now!
10-day predictions
STARLINK-30872 is classified as:


NORAD ID: 58225
Int'l Code: 2023-170V
Perigee: 489.0 km
Apogee: 491.5 km
Inclination: 43.0 °
Period: 94.3 minutes
Semi major axis: 6861 km
RCS: Unknown
Launch date: November 3, 2023
Source: United States (US)
Launch site: AIR FORCE EASTERN TEST RANGE (AFETR)
Your satellite tracking list
STARLINK-5403
Track 1 satellite(s)




NASA's NSSDC Master Catalog

Two Line Element Set (TLE):
1 58225U 23170V   25199.57596769 -.00000686  00000-0 -15420-4 0  9993
2 58225  43.0047 294.4589 0001864 274.2332  85.8306 15.27556988 94992
Source of the keplerian elements: AFSPC